map of JIB home
JIB - Airport
Location
City:  Djibouti, Djibouti
Name:Ambouli International Airport
ICAO:HDAM
IATA:JIB

Details
Type:Airport (Aerodrome, Airfield)
Use:Public/Civil, Military, International (customs port of entry)
Latitude:1132'50"N (11.547331)
Longitude:4309'34"E (43.159481)
Datum:WGS 1984
Elevation:49 ft (15 m)
Variation:1.92E (WMM2015v2 magnetic declination)
0.02 annual change
Runways:1
Longest:10335 × 150 ft (3150 × 45.5 m), paved

Time
Time Zone:UTC+3
Local Time:

Weather
METAR:HDAM 041200Z 09014KT 9999 SCT023 29/20 Q1015
TAF:HDAM 040500Z 0406/0506 10010KT SCT023
BECMG 0415/0418 VRB05KT SCT020
BECMG 0500/0506 00000KT SCT020

Related Locations
Nearby:
Farthest:AUQ: 12249 mi / 19713 km
Atuona, Marquesas Islands, PF

Find:

   beyond  
but within

Other Information
Maps:
NOTAMs:
Links:
Sources:

  
  • flag of Djibouti
  

Airport Diagram

Airport diagram for JIB

Larger airport diagram (OBSOLETE) from NGA

Sectional Chart

Flight Planning
at skyvector.com

Satellite Image

Google Maps Satellite view

 

Copyright © 2004-2019 Karl L. Swartz. All rights reserved.
The Great Circle Mapper name and logo are trademarks of the Great Circle Mapper.
All other trademarks mentioned herein belong to their respective owners.
Please see credits for attibutions and further copyright information.

  Follow gcmap on Facebook Follow gcmap on Twitter GCmap on LinkedIn

hCard Microformat

Geo Microformat